Regional Weather Roundup
Issued by NWS

Home | Current Version | Previous Version | Text Only | Print | Product List | Glossary Off
Versions: 1 2 3 4 5 6 7 8 9 10 11 12 13 14 15 16 17 18 19 20 21 22 23 24 25 26 27 28 29 30 31 32 33 34 35 36 37 38 39 40 41 42 43 44 45 46 47 48 49 50

000
ASUS45 KCYS 010510
RWRWY

WYOMING REGIONAL WEATHER ROUNDUP
NATIONAL WEATHER SERVICE CHEYENNE WY
1000 PM MST SAT JAN 31 2015

NOTE:  "FAIR" INDICATES FEW OR NO CLOUDS BELOW 12,000 FEET
WITH NO SIGNIFICANT WEATHER AND/OR OBSTRUCTIONS TO VISIBILITY.

WYZ001-010600-
YELLOWSTONE NATIONAL PARK

CITY           SKY/WX    TMP DP  RH WIND       PRES   REMARKS
LK YELLOWSTONE   N/A      9   5  84 CALM      30.08R
W YELLOWSTONE  NOT AVBL

$$
WYZ002>013-054>058-071-098>099-010600-
NORTHERN WYOMING

CITY           SKY/WX    TMP DP  RH WIND       PRES   REMARKS
JACKSON        FAIR      12  10  92 N10       30.09R WCI  -1
CODY           CLOUDY    16  16 100 N13       30.14R WCI   2
GREYBULL       FAIR      21  12  68 NW20      30.14R WCI   6
WORLAND        MOCLDY    22  15  75 NW15      30.15R WCI   9
SHERIDAN       CLOUDY    15   8  73 NW21      30.22R WCI  -2
BUFFALO        FLURRIES  13   9  84 N38G47    30.08R WCI -10
GILLETTE       CLOUDY    18  13  80 N22       30.10R WCI   1
HULETT           N/A    N/A N/A N/A MISG        N/A
NEWCASTLE      FLURRIES  23  19  86 NW24G31   30.04R WCI   7

$$
WYZ014>020-022>026-101>103-010600-
CENTRAL WYOMING

CITY           SKY/WX    TMP DP  RH WIND       PRES   REMARKS
BIG PINEY      FAIR      23   9  55 N15       30.03R WCI  10
PINEDALE       FAIR      16   7  67 W14       30.03S WCI   1
DUBOIS         FAIR      23  10  58 W17G23    30.00R WCI   9
LANDER         MOCLDY    25  19  78 W3        30.04S
RIVERTON       MOCLDY    24  19  81 NW8       30.07R WCI  15
CASPER         CLOUDY    21  16  81 NE9       30.07R WCI  11
DOUGLAS        CLOUDY    23  16  74 NW20G29   30.06R WCI   8

$$
WYZ021-027>030-104>119-010600-
SOUTHERN WYOMING

CITY           SKY/WX    TMP DP  RH WIND       PRES   REMARKS
EVANSTON       FAIR      26  18  71 SW8       30.09R WCI  18
FORT BRIDGER   FAIR      30  16  56 W9        30.10S WCI  22
ROCK SPRINGS   FAIR      25  10  53 VRB3      30.04R
DIXON          FAIR      27  19  70 CALM      29.99R
RAWLINS        FAIR      23  18  81 N7        30.00R WCI  15
SARATOGA       FAIR      23  21  93 NW9       29.97R WCI  13
LARAMIE        MOCLDY    23  17  78 N10       29.90R WCI  12
CHEYENNE       CLOUDY    27  21  78 N23G31    29.90R WCI  12
TORRINGTON     CLOUDY    25  22  88 N7        29.99R WCI  17
PINE BLUFFS    CLOUDY    28  27  93 N18       29.92R WCI  16

$$


USA.gov is the U.S. government's official web portal to all federal, state and local government web resources and services.